Time,TemperatureF,DewpointF,PressureIn,WindDirection,WindDirectionDegrees,WindSpeedMPH,WindSpeedGustMPH,Humidity,HourlyPrecipIn,Conditions,Clouds,dailyrainin,SoftwareType,DateUTC
2013-05-06 00:02:00,52.0,50.0,29.92,NE,45,6.0,9.0,93,0.00,,,0.00,,2013-05-06 05:02:00,
2013-05-06 00:12:00,52.0,50.0,29.92,NE,45,6.0,9.0,93,0.00,,,0.00,,2013-05-06 05:12:00,
2013-05-06 00:22:00,52.0,50.0,29.91,NE,43,5.0,9.0,93,0.00,,,0.00,,2013-05-06 05:22:00,
2013-05-06 00:32:00,52.0,50.0,29.91,NE,39,6.0,10.0,93,0.00,,,0.00,,2013-05-06 05:32:00,
2013-05-06 00:42:00,52.0,50.0,29.91,NE,39,6.0,10.0,93,0.00,,,0.00,,2013-05-06 05:42:00,
2013-05-06 00:52:00,52.0,50.0,29.90,NNE,26,7.0,10.0,93,0.00,,,0.00,,2013-05-06 05:52:00,
2013-05-06 01:02:00,52.0,50.0,29.89,NE,42,7.0,10.0,94,0.00,,,0.00,,2013-05-06 06:02:00,
2013-05-06 01:12:00,52.0,50.0,29.89,NE,42,7.0,10.0,94,0.00,,,0.00,,2013-05-06 06:12:00,
2013-05-06 01:21:00,52.0,50.0,29.89,NNE,19,7.0,11.0,94,0.00,,,0.00,,2013-05-06 06:21:00,
2013-05-06 01:31:00,52.0,50.0,29.89,North,11,6.0,11.0,94,0.00,,,0.00,,2013-05-06 06:31:00,
2013-05-06 01:42:00,52.0,50.0,29.89,North,11,6.0,11.0,94,0.00,,,0.00,,2013-05-06 06:42:00,
2013-05-06 01:52:00,52.0,50.0,29.89,NNE,32,7.0,10.0,94,0.00,,,0.00,,2013-05-06 06:52:00,
2013-05-06 02:01:00,53.0,51.0,29.88,NE,49,6.0,10.0,94,0.00,,,0.00,,2013-05-06 07:01:00,
2013-05-06 02:11:00,53.0,51.0,29.88,NE,49,6.0,10.0,94,0.00,,,0.00,,2013-05-06 07:11:00,
2013-05-06 02:22:00,53.0,51.0,29.88,NNE,33,7.0,10.0,94,0.01,,,0.01,,2013-05-06 07:22:00,
2013-05-06 02:31:00,53.0,51.0,29.88,NE,34,6.0,10.0,94,0.01,,,0.01,,2013-05-06 07:31:00,
2013-05-06 02:42:00,53.0,51.0,29.88,NE,34,6.0,10.0,94,0.01,,,0.01,,2013-05-06 07:42:00,
2013-05-06 02:52:00,53.0,51.0,29.88,NNE,25,6.0,12.0,94,0.01,,,0.01,,2013-05-06 07:52:00,
2013-05-06 03:02:00,53.0,51.0,29.88,NE,51,7.0,9.0,94,0.01,,,0.01,,2013-05-06 08:02:00,
2013-05-06 03:12:00,53.0,51.0,29.88,NE,51,7.0,9.0,94,0.01,,,0.01,,2013-05-06 08:12:00,
2013-05-06 03:22:00,53.0,51.0,29.88,NE,49,6.0,9.0,94,0.00,,,0.01,,2013-05-06 08:22:00,
2013-05-06 03:31:00,53.0,51.0,29.88,NNE,24,5.0,8.0,94,0.00,,,0.01,,2013-05-06 08:31:00,
2013-05-06 03:42:00,53.0,51.0,29.88,NNE,24,5.0,8.0,94,0.00,,,0.01,,2013-05-06 08:42:00,
2013-05-06 03:52:00,53.0,51.0,29.88,NNE,32,5.0,8.0,94,0.00,,,0.01,,2013-05-06 08:52:00,
2013-05-06 04:01:00,53.0,51.0,29.88,NE,42,6.0,8.0,94,0.00,,,0.01,,2013-05-06 09:01:00,
2013-05-06 04:11:00,53.0,51.0,29.88,NE,42,6.0,8.0,94,0.00,,,0.01,,2013-05-06 09:11:00,
2013-05-06 04:22:00,53.0,51.0,29.88,NNE,24,4.0,10.0,94,0.00,,,0.01,,2013-05-06 09:22:00,
2013-05-06 04:32:00,54.0,53.0,29.88,North,10,6.0,8.0,95,0.00,,,0.01,,2013-05-06 09:32:00,
2013-05-06 04:42:00,54.0,53.0,29.88,North,10,6.0,8.0,95,0.00,,,0.01,,2013-05-06 09:42:00,
2013-05-06 04:53:00,54.0,53.0,29.88,NNE,29,6.0,10.0,95,0.00,,,0.01,,2013-05-06 09:53:00,
2013-05-06 05:02:00,54.0,53.0,29.88,NE,37,5.0,9.0,95,0.00,,,0.01,,2013-05-06 10:02:00,
2013-05-06 05:12:00,54.0,53.0,29.88,NE,37,5.0,9.0,95,0.00,,,0.01,,2013-05-06 10:12:00,
2013-05-06 05:22:00,54.0,53.0,29.88,NNE,29,6.0,9.0,96,0.00,,,0.01,,2013-05-06 10:22:00,
2013-05-06 05:33:00,54.0,53.0,29.88,North,355,5.0,7.0,96,0.00,,,0.01,,2013-05-06 10:33:00,
2013-05-06 05:42:00,54.0,53.0,29.88,North,355,5.0,7.0,96,0.00,,,0.01,,2013-05-06 10:42:00,
2013-05-06 05:52:00,54.0,53.0,29.89,North,355,6.0,8.0,96,0.00,,,0.01,,2013-05-06 10:52:00,
2013-05-06 06:02:00,54.0,53.0,29.90,NNE,16,4.0,8.0,96,0.00,,,0.01,,2013-05-06 11:02:00,
2013-05-06 06:12:00,54.0,53.0,29.90,NNE,16,4.0,8.0,96,0.00,,,0.01,,2013-05-06 11:12:00,
2013-05-06 06:22:00,54.0,53.0,29.90,NNE,16,6.0,10.0,96,0.00,,,0.01,,2013-05-06 11:22:00,
2013-05-06 06:31:00,54.0,53.0,29.91,North,355,6.0,10.0,96,0.00,,,0.01,,2013-05-06 11:31:00,
2013-05-06 06:42:00,54.0,53.0,29.91,North,355,6.0,10.0,96,0.00,,,0.01,,2013-05-06 11:42:00,
2013-05-06 06:52:00,54.0,53.0,29.91,North,355,5.0,10.0,96,0.00,,,0.01,,2013-05-06 11:52:00,
2013-05-06 07:01:00,54.0,53.0,29.91,North,355,7.0,10.0,96,0.00,,,0.01,,2013-05-06 12:01:00,
2013-05-06 07:12:00,54.0,53.0,29.91,North,355,7.0,10.0,96,0.00,,,0.01,,2013-05-06 12:12:00,
2013-05-06 07:21:00,54.0,53.0,29.91,NNE,24,7.0,10.0,96,0.00,,,0.01,,2013-05-06 12:21:00,
2013-05-06 07:32:00,54.0,53.0,29.92,North,360,6.0,12.0,96,0.00,,,0.01,,2013-05-06 12:32:00,
2013-05-06 07:42:00,54.0,53.0,29.92,North,360,6.0,12.0,96,0.00,,,0.01,,2013-05-06 12:42:00,
2013-05-06 07:52:00,54.0,53.0,29.92,NNE,18,7.0,11.0,96,0.00,,,0.01,,2013-05-06 12:52:00,
2013-05-06 08:01:00,54.0,53.0,29.92,North,5,6.0,10.0,96,0.00,,,0.01,,2013-05-06 13:01:00,
2013-05-06 08:11:00,54.0,53.0,29.92,North,5,6.0,10.0,96,0.00,,,0.01,,2013-05-06 13:11:00,
2013-05-06 08:21:00,54.0,53.0,29.92,NNE,15,7.0,10.0,96,0.00,,,0.01,,2013-05-06 13:21:00,
2013-05-06 08:32:00,55.0,54.0,29.92,NNE,12,7.0,11.0,96,0.00,,,0.01,,2013-05-06 13:32:00,
2013-05-06 08:42:00,55.0,54.0,29.92,NNE,12,7.0,11.0,96,0.00,,,0.01,,2013-05-06 13:42:00,
2013-05-06 08:52:00,55.0,54.0,29.92,NNE,13,6.0,11.0,96,0.00,,,0.01,,2013-05-06 13:52:00,
2013-05-06 09:01:00,55.0,54.0,29.92,NNE,13,6.0,10.0,96,0.00,,,0.01,,2013-05-06 14:01:00,
2013-05-06 09:11:00,55.0,54.0,29.92,NNE,13,6.0,10.0,96,0.00,,,0.01,,2013-05-06 14:11:00,
2013-05-06 09:21:00,55.0,54.0,29.93,NNE,28,7.0,14.0,96,0.00,,,0.01,,2013-05-06 14:21:00,
2013-05-06 09:32:00,55.0,54.0,29.93,NNE,15,8.0,11.0,96,0.00,,,0.01,,2013-05-06 14:32:00,
2013-05-06 09:42:00,55.0,54.0,29.93,NNE,15,8.0,11.0,96,0.00,,,0.01,,2013-05-06 14:42:00,
2013-05-06 09:52:00,55.0,54.0,29.93,NNE,26,6.0,10.0,95,0.00,,,0.01,,2013-05-06 14:52:00,
2013-05-06 10:01:00,56.0,55.0,29.94,NNE,14,8.0,12.0,95,0.00,,,0.01,,2013-05-06 15:01:00,
2013-05-06 10:11:00,56.0,55.0,29.94,NNE,14,8.0,12.0,95,0.00,,,0.01,,2013-05-06 15:11:00,
2013-05-06 10:21:00,56.0,55.0,29.94,NNE,13,7.0,12.0,96,0.00,,,0.01,,2013-05-06 15:21:00,
2013-05-06 10:33:00,57.0,56.0,29.94,North,11,8.0,11.0,95,0.00,,,0.01,,2013-05-06 15:33:00,
2013-05-06 10:42:00,57.0,56.0,29.94,North,11,8.0,11.0,95,0.00,,,0.01,,2013-05-06 15:42:00,
2013-05-06 10:53:00,57.0,56.0,29.95,North,5,6.0,14.0,95,0.00,,,0.01,,2013-05-06 15:53:00,
2013-05-06 11:03:00,57.0,55.0,29.94,NNE,20,6.0,11.0,94,0.00,,,0.01,,2013-05-06 16:03:00,
2013-05-06 11:13:00,57.0,55.0,29.94,NNE,20,6.0,11.0,94,0.00,,,0.01,,2013-05-06 16:13:00,
2013-05-06 11:23:00,59.0,57.0,29.94,North,5,8.0,13.0,94,0.00,,,0.01,,2013-05-06 16:23:00,
2013-05-06 11:32:00,59.0,56.0,29.93,NNE,19,6.0,12.0,91,0.00,,,0.01,,2013-05-06 16:32:00,
2013-05-06 11:42:00,59.0,56.0,29.93,NNE,19,6.0,12.0,91,0.00,,,0.01,,2013-05-06 16:42:00,
2013-05-06 11:52:00,59.0,56.0,29.93,NNE,29,6.0,11.0,91,0.00,,,0.01,,2013-05-06 16:52:00,
2013-05-06 12:02:00,60.0,56.0,29.93,NNE,16,9.0,12.0,88,0.00,,,0.01,,2013-05-06 17:02:00,
2013-05-06 12:12:00,60.0,56.0,29.93,NNE,16,9.0,12.0,88,0.00,,,0.01,,2013-05-06 17:12:00,
2013-05-06 12:23:00,62.0,58.0,29.93,NE,38,7.0,13.0,86,0.00,,,0.01,,2013-05-06 17:23:00,
2013-05-06 12:31:00,61.0,57.0,29.93,NNE,13,7.0,13.0,86,0.00,,,0.01,,2013-05-06 17:31:00,
2013-05-06 12:42:00,61.0,57.0,29.93,NNE,13,7.0,13.0,86,0.00,,,0.01,,2013-05-06 17:42:00,
2013-05-06 12:52:00,62.0,57.0,29.93,North,5,8.0,13.0,84,0.00,,,0.01,,2013-05-06 17:52:00,
2013-05-06 13:01:00,62.0,56.0,29.92,NNE,22,10.0,16.0,82,0.00,,,0.01,,2013-05-06 18:01:00,
2013-05-06 13:12:00,62.0,56.0,29.92,NNE,22,10.0,16.0,82,0.00,,,0.01,,2013-05-06 18:12:00,
2013-05-06 13:21:00,62.0,57.0,29.93,NNE,15,7.0,16.0,84,0.00,,,0.01,,2013-05-06 18:21:00,
2013-05-06 13:31:00,62.0,57.0,29.92,North,5,6.0,10.0,84,0.00,,,0.01,,2013-05-06 18:31:00,
2013-05-06 13:43:00,62.0,57.0,29.92,North,5,6.0,10.0,84,0.00,,,0.01,,2013-05-06 18:43:00,
2013-05-06 13:52:00,62.0,57.0,29.93,NNE,22,9.0,14.0,84,0.00,,,0.01,,2013-05-06 18:52:00,
2013-05-06 14:01:00,62.0,57.0,29.93,NNE,15,7.0,11.0,85,0.00,,,0.01,,2013-05-06 19:01:00,
2013-05-06 14:11:00,62.0,57.0,29.93,NNE,15,7.0,11.0,85,0.00,,,0.01,,2013-05-06 19:11:00,
2013-05-06 14:22:00,62.0,57.0,29.93,NNE,19,8.0,12.0,85,0.00,,,0.01,,2013-05-06 19:22:00,
2013-05-06 14:32:00,63.0,58.0,29.92,North,355,9.0,13.0,83,0.00,,,0.01,,2013-05-06 19:32:00,
2013-05-06 14:41:00,63.0,58.0,29.92,North,355,9.0,13.0,83,0.00,,,0.01,,2013-05-06 19:41:00,
2013-05-06 14:52:00,63.0,57.0,29.92,NNE,27,10.0,18.0,82,0.00,,,0.01,,2013-05-06 19:52:00,
2013-05-06 15:02:00,63.0,58.0,29.92,NNE,21,8.0,18.0,84,0.00,,,0.01,,2013-05-06 20:02:00,
2013-05-06 15:11:00,63.0,58.0,29.92,NNE,21,8.0,18.0,84,0.00,,,0.01,,2013-05-06 20:11:00,
2013-05-06 15:21:00,63.0,57.0,29.92,NNE,20,12.0,16.0,81,0.00,,,0.01,,2013-05-06 20:21:00,
2013-05-06 15:32:00,63.0,57.0,29.91,NNE,22,9.0,18.0,81,0.00,,,0.01,,2013-05-06 20:32:00,
2013-05-06 15:42:00,63.0,57.0,29.91,NNE,22,9.0,18.0,81,0.00,,,0.01,,2013-05-06 20:42:00,
2013-05-06 15:52:00,64.0,58.0,29.91,NNE,13,10.0,15.0,80,0.00,,,0.01,,2013-05-06 20:52:00,
2013-05-06 16:01:00,64.0,58.0,29.91,NNE,17,9.0,14.0,80,0.00,,,0.01,,2013-05-06 21:01:00,
2013-05-06 16:11:00,64.0,58.0,29.91,NNE,17,9.0,14.0,80,0.00,,,0.01,,2013-05-06 21:11:00,
2013-05-06 16:21:00,65.0,58.0,29.90,North,11,11.0,14.0,78,0.00,,,0.01,,2013-05-06 21:21:00,
2013-05-06 16:32:00,65.0,58.0,29.90,North,5,11.0,16.0,78,0.00,,,0.01,,2013-05-06 21:32:00,
2013-05-06 16:43:00,65.0,58.0,29.90,North,5,11.0,16.0,78,0.00,,,0.01,,2013-05-06 21:43:00,
2013-05-06 16:53:00,65.0,58.0,29.90,NNE,25,10.0,16.0,78,0.00,,,0.01,,2013-05-06 21:53:00,
2013-05-06 17:03:00,66.0,58.0,29.90,NNE,19,9.0,15.0,76,0.00,,,0.01,,2013-05-06 22:03:00,
2013-05-06 17:12:00,66.0,58.0,29.90,NNE,19,9.0,15.0,76,0.00,,,0.01,,2013-05-06 22:12:00,
2013-05-06 17:22:00,65.0,58.0,29.90,North,355,7.0,13.0,77,0.00,,,0.01,,2013-05-06 22:22:00,
2013-05-06 17:33:00,65.0,58.0,29.90,NNW,344,7.0,12.0,78,0.00,,,0.01,,2013-05-06 22:33:00,
2013-05-06 17:45:00,65.0,58.0,29.90,NNW,344,7.0,12.0,78,0.00,,,0.01,,2013-05-06 22:45:00,
2013-05-06 17:52:00,65.0,58.0,29.90,NNE,22,7.0,12.0,79,0.00,,,0.01,,2013-05-06 22:52:00,
2013-05-06 18:02:00,64.0,56.0,29.91,North,355,11.0,16.0,76,0.00,,,0.01,,2013-05-06 23:02:00,
2013-05-06 18:12:00,64.0,56.0,29.91,North,355,11.0,16.0,76,0.00,,,0.01,,2013-05-06 23:12:00,
2013-05-06 18:22:00,64.0,57.0,29.91,North,5,8.0,15.0,78,0.00,,,0.01,,2013-05-06 23:22:00,
2013-05-06 18:31:00,64.0,57.0,29.92,NNE,14,6.0,10.0,79,0.00,,,0.01,,2013-05-06 23:31:00,
2013-05-06 18:41:00,64.0,57.0,29.92,NNE,14,6.0,10.0,79,0.00,,,0.01,,2013-05-06 23:41:00,
2013-05-06 18:52:00,63.0,56.0,29.92,North,9,7.0,11.0,79,0.00,,,0.01,,2013-05-06 23:52:00,
2013-05-06 19:01:00,63.0,57.0,29.92,North,5,6.0,9.0,81,0.00,,,0.01,,2013-05-07 00:01:00,
2013-05-06 19:11:00,63.0,57.0,29.92,North,5,6.0,9.0,81,0.00,,,0.01,,2013-05-07 00:11:00,
2013-05-06 19:21:00,63.0,57.0,29.92,NNE,13,9.0,12.0,81,0.00,,,0.01,,2013-05-07 00:21:00,
2013-05-06 19:31:00,62.0,56.0,29.93,NNE,19,4.0,10.0,82,0.00,,,0.01,,2013-05-07 00:31:00,
2013-05-06 19:41:00,62.0,56.0,29.93,NNE,19,4.0,10.0,82,0.00,,,0.01,,2013-05-07 00:41:00,
2013-05-06 19:51:00,61.0,56.0,29.93,North,355,1.0,6.0,84,0.00,,,0.01,,2013-05-07 00:51:00,
2013-05-06 20:01:00,61.0,56.0,29.93,North,355,1.0,6.0,84,0.00,,,0.01,,2013-05-07 01:01:00,
2013-05-06 20:11:00,61.0,56.0,29.93,North,355,1.0,6.0,84,0.00,,,0.01,,2013-05-07 01:11:00,
2013-05-06 20:21:00,60.0,56.0,29.94,ENE,57,0.0,2.0,87,0.00,,,0.01,,2013-05-07 01:21:00,
2013-05-06 20:32:00,59.0,56.0,29.94,North,5,2.0,5.0,89,0.00,,,0.01,,2013-05-07 01:32:00,
2013-05-06 20:42:00,59.0,56.0,29.94,North,5,2.0,5.0,89,0.00,,,0.01,,2013-05-07 01:42:00,
2013-05-06 20:53:00,59.0,56.0,29.94,North,5,2.0,5.0,89,0.00,,,0.01,,2013-05-07 01:53:00,
2013-05-06 21:02:00,60.0,57.0,29.94,North,355,1.0,5.0,89,0.00,,,0.01,,2013-05-07 02:02:00,
2013-05-06 21:11:00,60.0,57.0,29.94,North,355,1.0,5.0,89,0.00,,,0.01,,2013-05-07 02:11:00,
2013-05-06 21:21:00,60.0,57.0,29.95,North,355,1.0,5.0,89,0.00,,,0.01,,2013-05-07 02:21:00,
2013-05-06 21:31:00,60.0,57.0,29.95,North,355,1.0,5.0,89,0.00,,,0.01,,2013-05-07 02:31:00,
2013-05-06 21:41:00,60.0,57.0,29.95,North,355,1.0,5.0,89,0.00,,,0.01,,2013-05-07 02:41:00,
2013-05-06 21:51:00,59.0,56.0,29.96,North,360,2.0,5.0,89,0.00,,,0.01,,2013-05-07 02:51:00,
2013-05-06 22:01:00,59.0,56.0,29.96,North,360,3.0,5.0,89,0.00,,,0.01,,2013-05-07 03:01:00,
2013-05-06 22:11:00,59.0,56.0,29.96,North,360,3.0,5.0,89,0.00,,,0.01,,2013-05-07 03:11:00,
2013-05-06 22:22:00,58.0,55.0,29.96,NE,34,4.0,6.0,90,0.00,,,0.01,,2013-05-07 03:22:00,
2013-05-06 22:32:00,59.0,56.0,29.96,NNE,30,4.0,6.0,90,0.00,,,0.01,,2013-05-07 03:32:00,
2013-05-06 22:42:00,59.0,56.0,29.96,NNE,30,4.0,6.0,90,0.00,,,0.01,,2013-05-07 03:42:00,
2013-05-06 22:53:00,59.0,56.0,29.96,NE,34,5.0,8.0,89,0.00,,,0.01,,2013-05-07 03:53:00,
2013-05-06 23:03:00,59.0,55.0,29.96,NNE,32,5.0,9.0,88,0.00,,,0.01,,2013-05-07 04:03:00,
2013-05-06 23:12:00,59.0,55.0,29.96,NNE,32,5.0,9.0,88,0.00,,,0.01,,2013-05-07 04:12:00,
2013-05-06 23:23:00,59.0,55.0,29.96,NNE,27,5.0,8.0,87,0.00,,,0.01,,2013-05-07 04:23:00,
2013-05-06 23:33:00,59.0,55.0,29.96,NNE,27,5.0,8.0,87,0.00,,,0.01,,2013-05-07 04:33:00,
2013-05-06 23:42:00,59.0,55.0,29.96,NNE,27,5.0,8.0,87,0.00,,,0.01,,2013-05-07 04:42:00,
2013-05-06 23:52:00,58.0,55.0,29.96,NNE,16,3.0,7.0,89,0.00,,,0.01,,2013-05-07 04:52:00,